Regional Weather Roundup
Issued by NWS

Home | Current Version | Previous Version | Text Only | Print | Product List | Glossary On
Versions: 1 2 3 4 5 6 7 8 9 10 11 12 13 14 15 16 17 18 19 20 21 22 23 24 25 26 27 28 29 30 31 32 33 34 35 36 37 38 39 40 41 42 43 44 45 46 47 48 49 50
000
ASUS44 KFWD 301303
RWRTX
NORTH TEXAS HOURLY WEATHER ROUNDUP
NATIONAL WEATHER SERVICE FORT WORTH TX
800 AM CDT WED JUL 30 2014

NOTE: "FAIR" INDICATES FEW OR NO CLOUDS BELOW 12,000 FEET WITH NO
SIGNIFICANT WEATHER AND/OR OBSTRUCTIONS TO VISIBILITY.

TXZ118-119-301400-
DALLAS/FORT WORTH METROPLEX

CITY           SKY/WX    TMP DP  RH WIND       PRES   REMARKS
DFW AIRPORT    LGT RAIN  76  70  82 E6        30.07R
DALLAS LOVE    LGT RAIN  77  71  82 E5        30.08R
FTW MEACHAM    LGT RAIN  76  70  82 E9        30.05S
DAL-EXECUTIVE  CLOUDY    77  70  79 CALM      30.06R
FTW-ALLIANCE   RAIN      70  69  97 E3        30.06R FOG
FTW-NAS-JRB    CLOUDY    79  67  66 SE7       30.09S
FTW-SPINKS     CLOUDY    73  70  88 SE5       30.07R
ARLINGTON      LGT RAIN  76  70  82 SE3       30.06R
GRAND PRAIRIE  SUNNY     77  70  78 E3        30.08R
MESQUITE       CLOUDY    75  70  83 CALM      30.07R
LANCASTER      CLOUDY    74  69  83 CALM      30.07R
$$

TXZ091>094-102>105-117-120-121-131>134-301400-
NORTH CENTRAL TEXAS

CITY           SKY/WX    TMP DP  RH WIND       PRES   REMARKS
SHRMAN/DENISON RAIN      72  68  87 SE12      30.10S
GAINESVILLE    RAIN      70  68  95 SE8       30.10S
BOWIE          RAIN      69  68  97 E6        30.06F
BRIDGEPORT     CLOUDY    70  70  99 E5        30.07S
DECATUR        CLOUDY    69  68  95 E7        30.08S
DENTON         LGT RAIN  71  69  93 NE6       30.07S
MCKINNEY       LGT RAIN  72  70  93 E5        30.09R
GREENVILLE     CLOUDY    73  64  73 E5        30.09R
ROCKWALL       CLOUDY    75  68  77 CALM      30.08R
TERRELL        CLOUDY    78  68  71 SE7       30.07R
WAXAHACHIE     CLOUDY    74  69  83 SE5       30.07R
CLEBURNE       CLOUDY    75  73  94 SE8       30.07R
GRANBURY       CLOUDY    76  69  78 SE5       30.05S
$$

TXZ083>090-098>101-113>116-127>130-139>142-154-155-301400-
WESTERN NORTH TEXAS

CITY           SKY/WX    TMP DP  RH WIND       PRES   REMARKS
WICHITA FALLS  LGT RAIN  68  66  93 SE12      30.05S FOG
WF-KICKAPOO    LGT RAIN  69  67  93 SE13      30.06F
VERNON         CLOUDY    68  64  86 E9        30.05F
ABILENE        CLOUDY    76  65  68 S10       30.04S
ABILENE-DYESS  CLOUDY    75  66  72 S13       30.02F
BRECKENRIDGE   CLOUDY    79  66  65 MISG      30.02S HAZE
GRAHAM         CLOUDY    75  65  70 SE5       30.01S
MINERAL WELLS  CLOUDY    73  68  84 SE8       30.03S
STEPHENVILLE   CLOUDY    76  68  76 S7        30.07F
COMANCHE       CLOUDY    76  65  67 SE7       30.05S
BROWNWOOD      CLOUDY    75  66  73 S8        30.05R
COLEMAN        CLOUDY    76  60  57 S8        30.06R
BRADY          SUNNY     73  57  56 SE6       30.06S
$$

TXZ143>147-156>162-174-175-301400-
CENTRAL TEXAS

CITY           SKY/WX    TMP DP  RH WIND       PRES   REMARKS
WACO           CLOUDY    78  70  76 S9        30.04S
WACO-TSTC      MOSUNNY   77  72  83 S5        30.04S
WACO-MCGREGOR  CLOUDY    75  66  73 S8        30.06S
HILLSBORO      PTSUNNY   77  69  75 S9        30.05R
CORSICANA      MOSUNNY   76  71  85 SE5       30.07R
MEXIA          MOSUNNY   72  70  95 SE5       30.05S
HEARNE         SUNNY    N/A N/A N/A SE5       30.06S
CAMERON        SUNNY     76  72  87 S7        30.05R
TEMPLE         PTSUNNY   75  68  78 SE12      30.05S
KILLEEN        PTSUNNY   73  70  88 SE7       30.05R
KILLEEN-SKYLRK MOSUNNY   73  66  78 S7        30.05S
FORT HOOD      MOSUNNY   76  71  85 SE3       30.05S
GATESVILLE     CLOUDY    75  70  83 CALM      30.07S
HAMILTON       CLOUDY    75  70  83 SE9G16    30.06S
LAMPASAS       MOSUNNY   76  73  90 SE5       30.04S
$$

TXZ095>097-106>112-122>126-135>138-148>153-164>167-301400-
EAST TEXAS

CITY           SKY/WX    TMP DP  RH WIND       PRES   REMARKS
PARIS          CLOUDY    72  63  73 S6        30.10R
SULPHUR SPRNGS DRIZZLE   74  66  77 SE13      30.10S
CLARKSVILLE    CLOUDY    73  65  76 CALM      30.10R
MOUNT PLEASANT CLOUDY    72  65  80 SE3       30.11R
GILMER         PTSUNNY   73  66  78 CALM      30.12R
MINEOLA        CLOUDY    73  68  83 CALM      30.10R
TYLER          CLOUDY    75  66  73 SE8       30.08R
LONGVIEW       CLOUDY    75  65  70 SE7       30.09R
MARSHALL       PTSUNNY   73  66  76 SE3       30.12R
ATHENS         PTSUNNY   72  68  88 SE5       30.07S
JACKSONVILLE   SUNNY     73  68  82 SE3       30.11S
HENDERSON      PTSUNNY   73  65  78 SE5       30.10R
NACOGDOCHES    MOSUNNY   72  66  83 E6        30.09R
LUFKIN         MOSUNNY   75  68  78 SE6       30.08R
$$

SUPPLEMENTAL OBSERVATIONS (CENTRAL)

CITY           SKY/WX    TMP DP  RH WIND       PRES   REMARKS
$$

SUPPLEMENTAL OBSERVATIONS (WEST)

CITY           SKY/WX    TMP DP  RH WIND       PRES   REMARKS
$$

SUPPLEMENTAL OBSERVATIONS (EAST)

CITY           SKY/WX    TMP DP  RH WIND       PRES   REMARKS
$$

SUPPLEMENTAL OBSERVATIONS ARE A COLLECTION OF AUTOMATED INSTRUMENTS
THAT ARE MAINTAINED BY A VARIETY OF FEDERAL AND STATE AGENCIES.
CERTAIN ELEMENTS...SUCH AS HUMIDITY VALUES AND SUSTAINED WIND
SPEEDS...MAY BE APPROXIMATED.



USA.gov is the U.S. government's official web portal to all federal, state and local government web resources and services.